GW3951 Weather Reports


time (UTC)temp
F
wind
direction
speed
knots
gust
knots
rain 1hr
in
rain 24hr
in
rain mn
in
humidity
%
barometer
mb
20260509111514 59 138 0.0 0.0 0.00 0.00 0.00 95 1013.8
20260509110017 0 0.0 0.0 0.00 0.00 0.00 1013.5
20260509104515 0 0.0 0.0 0.00 0.00 0.00 1013.2
20260509103016 0 0.0 0.0 0.00 0.00 0.00 1013.1
20260509101528 0 0.0 0.0 0.00 0.00 0.00 1012.9
20260509100021 0 0.0 0.0 0.00 0.00 0.00 1013.0
20260509094525 0 0.0 0.0 0.00 0.00 0.00 1012.9
20260509093015 0 0.0 0.0 0.00 0.00 0.00 1013.2
20260509091518 60 0.0 0.0 0.00 0.00 0.00 94 1013.3
20260509090010 60 138 0.0 0.0 0.00 0.00 0.00 94 1013.3
20260509084515 60 138 0.0 0.0 0.00 0.00 0.00 94 1013.2
20260509083019 60 138 0.0 0.0 0.00 0.00 0.00 93 1013.2
20260509081525 60 138 0.0 0.0 0.00 0.00 0.00 93 1013.0
20260509080022 60 38 0.0 0.0 0.00 0.00 0.00 93 1013.7
20260509074514 60 38 0.0 0.0 0.00 0.00 0.00 93 1013.8
20260509073034 60 38 0.0 0.0 0.00 0.00 0.00 92 1013.7
20260509071527 60 38 0.0 0.0 0.00 0.00 0.00 92 1013.3
20260509070038 60 38 0.0 0.0 0.00 0.00 0.00 91 1013.7
20260509064524 61 38 0.0 1.7 0.00 0.00 0.00 91 1013.6
20260509063022 61 103 0.0 1.7 0.00 0.00 0.00 91 1014.1
20260509061523 61 103 0.0 1.7 0.00 0.00 0.00 90 1014.1
20260509060031 61 256 0.0 1.7 0.00 0.00 0.00 90 1015.2
20260509054523 61 22 1.7 2.6 0.00 0.00 0.00 90 1014.5
20260509053020 61 142 0.0 1.7 0.00 0.00 0.00 90 1014.4
20260509051519 61 119 0.0 0.0 0.00 0.00 0.00 89 1014.5
20260509050007 61 119 0.0 0.0 0.00 0.00 0.00 90 1015.2
20260509044509 61 119 0.0 0.0 0.00 0.00 0.00 89 1015.3
20260509043012 61 176 0.0 0.0 0.00 0.00 0.00 89 1015.6
20260509041517 61 211 0.0 0.0 0.00 0.00 0.00 89 1015.9
20260509040022 61 93 0.0 0.0 0.00 0.00 0.00 88 1015.6
20260509034505 62 93 0.0 0.0 0.00 0.00 0.00 88 1015.8
20260509033008 62 93 0.0 0.0 0.00 0.00 0.00 87 1016.2
20260509031516 62 93 0.0 0.0 0.00 0.00 0.00 87 1016.3
20260509030022 62 93 0.0 1.7 0.00 0.00 0.00 87 1016.2
20260509024521 62 159 0.0 0.0 0.00 0.00 0.00 86 1016.4
20260509023008 63 60 0.0 0.0 0.00 0.00 0.00 85 1016.2
20260509021516 63 60 0.0 0.0 0.00 0.00 0.00 85 1016.3
20260509020032 63 60 0.0 0.0 0.00 0.00 0.00 84 1016.2
20260509014541 63 117 0.0 0.0 0.00 0.00 0.00 83 1015.9
20260509013035 63 117 0.0 0.0 0.00 0.00 0.00 82 1015.9
20260509011511 64 117 0.0 0.0 0.00 0.00 0.00 79 1016.0
20260509010014 64 117 0.0 0.0 0.00 0.00 0.00 79 1015.7
20260509004520 64 84 0.0 0.0 0.00 0.00 0.00 78 1015.7
20260509003031 65 84 0.0 0.0 0.00 0.00 0.00 77 1015.5
20260509001523 65 84 0.0 1.7 0.00 0.00 0.00 76 1015.5
20260509000012 65 137 0.9 3.5 0.00 0.00 0.00 74 1015.3
20260508234516 66 178 0.9 1.7 0.00 0.00 0.00 73 1015.2
20260508233022 66 150 1.7 4.3 0.00 0.00 0.00 72 1015.0
20260508231528 66 123 0.9 2.6 0.00 0.00 0.00 72 1015.0
20260508230017 67 169 0.9 2.6 0.00 0.00 0.00 70 1015.1
20260508224513 67 123 1.7 7.0 0.00 0.00 0.00 68 1015.3
20260508223023 68 169 2.6 8.7 0.00 0.00 0.00 67 1015.0
20260508221524 69 154 1.7 7.0 0.00 0.00 0.00 66 1014.9
20260508220008 69 198 3.5 9.6 0.00 0.00 0.00 65 1015.0
20260508214516 69 180 2.6 8.7 0.00 0.00 0.00 65 1015.0
20260508213016 70 176 5.2 8.7 0.00 0.00 0.00 64 1014.9
20260508211523 71 175 4.3 10.4 0.00 0.00 0.00 62 1014.9
20260508210008 74 155 3.5 4.3 0.00 0.00 0.00 51 1014.7
20260508204512 75 211 0.9 3.5 0.00 0.00 0.00 49 1014.8
20260508203016 74 85 2.6 4.3 0.00 0.00 0.00 49 1014.6
20260508201522 74 44 1.7 5.2 0.00 0.11 0.00 50 1014.7
20260508200025 74 128 1.7 7.0 0.00 0.27 0.00 50 1014.9
20260508194510 74 52 2.6 9.6 0.00 0.38 0.00 52 1015.2
20260508193016 73 26 1.7 4.3 0.00 0.42 0.00 52 1015.6
20260508191525 73 98 2.6 5.2 0.00 0.42 0.00 49 1015.5
20260508190032 74 109 2.6 4.3 0.00 0.45 0.00 49 1015.6
20260508184528 73 40 4.3 6.1 0.00 0.58 0.00 51 1015.9
20260508183011 72 77 1.7 7.8 0.00 0.58 0.00 49 1016.0
20260508181524 73 78 1.7 5.2 0.00 0.58 0.00 50 1016.2
20260508180022 72 344 2.6 7.0 0.00 0.58 0.00 49 1016.4
20260508174524 71 60 0.9 7.0 0.00 0.58 0.00 51 1016.6
20260508173025 72 23 3.5 9.6 0.00 0.58 0.00 50 1016.7
20260508171523 71 96 0.9 4.3 0.00 0.58 0.00 49 1016.7
20260508170018 70 38 2.6 10.4 0.00 0.58 0.00 50 1017.2
20260508164526 70 352 3.5 12.2 0.00 0.58 0.00 54 1017.1
20260508163027 69 34 3.5 8.7 0.00 0.58 0.00 53 1017.4
20260508161526 69 73 1.7 10.4 0.00 0.58 0.00 56 1017.5
20260508160016 68 10 5.2 10.4 0.00 0.58 0.00 55 1017.9
20260508154523 68 32 4.3 9.6 0.00 0.58 0.00 57 1018.2
20260508153026 68 65 1.7 9.6 0.00 0.58 0.00 56 1018.2
20260508151530 67 74 5.2 15.6 0.00 0.58 0.00 58 1018.2
20260508150032 67 65 3.5 9.6 0.00 0.58 0.00 62 1018.1
20260508144520 66 38 5.2 12.2 0.00 0.58 0.00 61 1018.1
20260508143027 65 88 7.0 13.0 0.00 0.58 0.00 62 1018.0
20260508141545 65 57 5.2 11.3 0.00 0.58 0.00 64 1017.9
20260508140012 64 51 5.2 8.7 0.00 0.58 0.00 70 1017.9
20260508134519 63 83 4.3 11.3 0.00 0.58 0.00 74 1017.8
20260508133020 62 90 3.5 12.2 0.00 0.58 0.00 79 1017.6
20260508131508 61 71 5.2 9.6 0.00 0.58 0.00 82 1017.4
20260508130011 61 49 3.5 7.8 0.00 0.58 0.00 85 1017.3
20260508124513 59 81 3.5 6.1 0.00 0.58 0.00 89 1017.2
20260508123027 59 122 1.7 4.3 0.00 0.58 0.00 90 1017.1
20260508121531 58 53 1.7 4.3 0.00 0.58 0.00 91 1016.9
20260508120007 58 42 0.9 3.5 0.00 0.58 0.00 92 1016.6
20260508114515 58 59 1.7 4.3 0.00 0.58 0.00 91 1016.5
20260508113020 58 63 1.7 7.0 0.00 0.58 0.00 92 1016.0